Starlink 31426

operational
NORAD ID: 59249 Int'l Des: 2024-049 Owner: SPXS Country: US Constellation: starlink
LEOCIRCULAR

关于 Starlink 31426

正在加载描述...

实时位置

正在加载3D地球...

即将过境

高度历史

Altitude vs Time

uPlot chart will show altitude changes over time

两行轨道根数

1 59249U 24049U 25302.98170350 .00000079 00000-0 12386-4 0 9993
2 59249 42.9997 161.9012 0000929 281.7146 78.3601 15.27580914 92402
Epoch: Oct 29, 2025 • Age: 16 hours

当前状态

高度 485.3 km
速度 7.63 km/s
星下点 35.86°N, 11.73°E
发射日期 Mar 16, 2024
运行时间 1.6 years
类型 internet

技术详情

分类 Payload
质量 730.00 kg
干质量 700.00 kg
总质量 730.00 kg
长度 0.30 m
直径 4.10 m
跨度 29.00 m
形状 Box + pan
制造商 SPXS
平台类型 Starlink V2M
阶段状态 In Orbit
所有者/国家 SPXS/US

大型星座

Loading constellations...